Home   Weather   Saint-Petersburg   Past weeks

Flag for Russia Past Weather in Saint-Petersburg, Russia — Yesterday and Last 2 Weeks

Now
34 °F

Broken clouds.


Feels Like: 24 °F
Forecast: 21 / 35 °F
Wind: 15 mph from West

Location: St. Petersburg

Current Time: Jan 23, 2017 at 11:39:52 am

Latest Report: Jan 23, 2017 at 10:30 am


Visibility: N/A

Pressure: 29.77 "Hg

Humidity: 93%

Dew Point: 32 °F

Location of Saint-PetersburgLocation

Past Weather in Saint-Petersburg — Graph

°F

Saint-Petersburg Temperature Yesterday

Maximum temperature yesterday: 36 °F (at 11:00 am)
Minimum temperature yesterday: 21 °F (at 12:00 am)
Average temperature yesterday: 31 °F

High & Low Weather Summary for the Past Weeks

 TemperatureHumidityPressure
High37 °F (Jan 19, 9:30 pm)100% (Jan 10, 8:00 am)30.48 "Hg (Jan 10, 8:00 am)
Low14 °F (Jan 8, 10:00 am)51% (Jan 20, 7:00 am)29.27 "Hg (Jan 13, 5:00 am)
Average28 °F88%29.90 "Hg
* Reported Jan 8 10:00 am — Jan 23 10:00 am, Saint-Petersburg, Weather by CustomWeather, © 2017

Note: Actual official high and low records may vary slightly from our data, if they occured in-between our weather recording intervals... More about our weather records

Advertising

Saint-Petersburg Weather History for the Previous 24 Hours

Scroll right to see more
 ConditionsComfort  
Time TempWeatherWind HumidityBarometerVisibility
10:00 am
Mon, Jan 23
34 °FDrizzle. Low clouds.13 mph93%29.77 "Hg4 mi
9:30 am34 °FDrizzle. Low clouds.13 mph93%29.80 "Hg5 mi
9:00 am34 °FLow clouds.13 mph93%29.80 "Hg4 mi
8:30 am34 °FLow clouds.15 mph93%29.80 "HgN/A
8:00 am34 °FLow clouds.10 mph93%29.83 "HgN/A
7:30 am34 °FLow clouds.10 mph93%29.83 "HgN/A
7:00 am34 °FLow clouds.10 mph93%29.83 "HgN/A
6:30 am34 °FLow clouds.8 mph93%29.83 "HgN/A
6:00 am34 °FLow clouds.8 mph93%29.86 "HgN/A
5:30 am34 °FLow clouds.10 mph93%29.86 "HgN/A
5:00 am34 °FLow clouds.8 mph93%29.86 "HgN/A
4:30 am34 °FLow clouds.8 mph93%29.86 "HgN/A
4:00 am34 °FLow clouds.8 mph93%29.86 "HgN/A
3:30 am34 °FLow clouds.10 mph93%29.89 "HgN/A
3:00 am34 °FLow clouds.8 mph100%29.89 "HgN/A
2:30 am34 °FLow clouds.8 mph93%29.89 "HgN/A
2:00 am34 °FLow clouds.10 mph100%29.92 "HgN/A
1:30 am34 °FLow clouds.8 mph100%29.92 "HgN/A
1:00 am34 °FLow clouds.8 mph100%29.92 "Hg4 mi
12:30 am34 °FLow clouds.8 mph100%29.92 "Hg4 mi
12:00 am34 °FDrizzle. Low clouds.8 mph100%29.92 "Hg4 mi
11:30 pm
Sun, Jan 22
34 °FDrizzle. Low clouds.8 mph100%29.92 "Hg3 mi
11:00 pm34 °FDrizzle. Low clouds.10 mph93%29.92 "Hg4 mi
10:30 pm34 °FLow clouds.13 mph93%29.92 "HgN/A
10:00 pm34 °FDrizzle. Low clouds.13 mph93%29.92 "Hg6 mi
9:30 pm34 °FDrizzle. Low clouds.10 mph93%29.92 "Hg1 mi
9:00 pm34 °FDrizzle. Low clouds.8 mph93%29.95 "Hg1 mi
8:30 pm34 °FDrizzle. Low clouds.8 mph93%29.95 "Hg1 mi
8:00 pm34 °FLight rain. Passing clouds.6 mph93%29.95 "Hg1 mi
7:30 pm34 °FLight rain. Passing clouds.6 mph93%29.95 "Hg1 mi
7:00 pm34 °FLight rain. Passing clouds.3 mph93%29.95 "Hg1 mi
6:30 pm32 °FLight rain. Passing clouds.3 mph100%29.95 "Hg2 mi
6:00 pm34 °FLight rain. Passing clouds.6 mph93%29.95 "Hg2 mi
5:30 pm34 °FLight rain. Passing clouds.10 mph93%29.95 "Hg2 mi
5:00 pm34 °FLight rain. Passing clouds.10 mph93%29.95 "Hg2 mi
4:30 pm34 °FLight rain. Partly sunny.10 mph93%29.98 "Hg2 mi
4:00 pm34 °FLight rain. Partly sunny.13 mph100%29.95 "Hg1 mi
3:30 pm34 °FBroken clouds.20 mph93%29.95 "HgN/A
3:00 pm34 °FLight rain. Broken clouds.17 mph93%29.95 "HgN/A
2:30 pm36 °FLight rain. Broken clouds.17 mph87%29.95 "HgN/A
2:00 pm36 °FLight rain. Broken clouds.15 mph93%29.95 "HgN/A
1:30 pm36 °FBroken clouds.17 mph93%29.95 "HgN/A
1:00 pm36 °FMostly cloudy.22 mph93%29.95 "HgN/A
12:30 pm36 °FMostly cloudy.20 mph87%29.95 "HgN/A
12:00 pm36 °FLow clouds.17 mph87%29.95 "HgN/A
11:30 am36 °FLow clouds.22 mph87%29.95 "HgN/A
11:00 am36 °FLow clouds.22 mph87%29.95 "HgN/A
Weather by CustomWeather, © 2017

See weather overviewHow to use our weather pages